NIMBUS 2 DEB, 59970

Orbit data source: Space-Track

NIMBUS 2 DEB, 59970 is space debris in SSO originally from a launch on Sun, 15 May 1966 UTC launched from the Air Force Western Test Range (AFWTR). Debris objects in space refer to the collection of defunct objects orbiting the Earth. Examples of debris include non-operational satellites, rocket bodies, and fragments generated from explosions, collisions, or faulty payload assembly.

Loading next visibility...
Identifier
59970, 1966-040BZ
Orbit
SSO
Country
Flag of USUS
Related business
Manufacturer
Unknown
Mission
Spacecraft
Bus & Motor
Unknown
Mass
Unknown
Launch date (UTC)
1966-05-15 (60 years ago)
Launch vehicle
Unknown
Launch site
Air Force Western Test Range (AFWTR)
Object type
Payload
Rocket body
Debris
Shape & HBR
Unknown shape, 0.1 m
Radar Cross Section
Small (<0.1 m²)

Expand to show TLE details & history
Last TLE update: 6 days ago

TLE from 6 days ago
0 NIMBUS 2 DEB
1 59970U 66040BZ  26122.96052440  .00001370  00000-0  25390-2 0  9991
2 59970 100.3457 304.5416 0053553 326.8064  32.9708 13.41104389418180
Epoch: 2026-05-02T23:03Z
TLE epoch observation values (Epoch: 2026-05-02T23:03:09.308Z)
Latitude
0.00003°
Longitude
97.88188°
Altitude
1,074.356 km
Speed
7.331 km/s
True Right ascension
20h 18m 09s
True Declination
0° 00' 00"
Sunlit
Object was in daylight at epoch
Visualization orbit readout
Latitude
Unknown
Longitude
Unknown
Altitude
Unknown
Speed
Unknown
Apparent Right ascension
Unknown
Apparent Declination
Unknown
Sunlit
N/A
Visualization observer readout
Local Sidereal Time
22:35:32
Azimuth
Unknown
Elevation
Unknown
Doppler factor
Unknown
Orbital elements
Apogee altitude
1,142.576 km
Perigee altitude
1,062.454 km
Semi-major axis
7,480.652 km
Eccentricity
0.00536
Inclination
100.3457°
RAAN
304.5416°
Arg. of periapsis
326.8064°
True anomaly
33.30665°
Mean anomaly
32.9708°
Eccentric anomaly
33.13854°
Mean motion
3.35455 °/min
Orbital period
107.32 mins
BSTAR
0.002539
Loading maneuver chart data...
Computing Atmospheric mass density...
Loading historical data...
Loading historical data...
Loading historical data...
Loading historical data...
Loading historical data...
Loading historical data...
Loading historical data...

Documentation

Showing up to 5 results
|